Home   Weather   Worms   Past weeks

Flag for Germany Past Weather in Worms, Rhineland-Palatinate, Germany — Yesterday and Last 2 Weeks

Now
73 °F

Sunny.


Feels Like: 76 °F
Forecast: 58 / 75 °F
Wind: 2 mph from North

Location: Mannheim City

Current Time: May 30, 2017 at 9:23:58 am

Latest Report: May 30, 2017 at 8:50 am


Visibility: 10 mi

Pressure: 29.95 "Hg

Humidity: 61%

Dew Point: 59 °F

Location of WormsLocation

Past Weather in Worms — Graph

°F

Worms Temperature Yesterday

Maximum temperature yesterday: 91 °F (at 4:50 pm)
Minimum temperature yesterday: 66 °F (at 5:50 am)
Average temperature yesterday: 82 °F

High & Low Weather Summary for the Past Weeks

 TemperatureHumidityPressure
High91 °F (May 29, 4:50 pm)100% (May 16, 5:50 am)30.42 "Hg (May 16, 5:50 am)
Low45 °F (May 21, 5:50 am)25% (May 28, 2:50 pm)29.83 "Hg (May 18, 8:20 pm)
Average70 °F55%30.11 "Hg
* Reported May 15 8:20 am — May 30 8:20 am, Worms. Weather by CustomWeather, © 2017

Note: Actual official high and low records may vary slightly from our data, if they occured in-between our weather recording intervals... More about our weather records

Advertising

Worms Weather History for the Previous 24 Hours

Scroll right to see more
 ConditionsComfort  
Time TempWeatherWind HumidityBarometerVisibility
8:20 am
Tue, May 30
73 °FSunny.1 mph61%29.95 "Hg10 mi
7:50 am72 °FSunny.3 mph65%29.92 "Hg10 mi
7:20 am72 °FSunny.3 mph61%29.92 "Hg10 mi
6:50 am73 °FSunny.2 mph57%29.92 "Hg10 mi
6:20 am72 °FSunny.2 mph61%29.92 "Hg10 mi
5:50 am73 °FSunny.3 mph53%29.92 "Hg10 mi
10:50 pm
Mon, May 29
77 °FClear.1 mph54%29.89 "Hg10 mi
10:20 pm79 °FClear.3 mph48%29.89 "Hg10 mi
9:50 pm81 °FClear.1 mph42%29.89 "Hg10 mi
9:20 pm82 °FClear.5 mph40%29.89 "Hg10 mi
8:20 pm84 °FSunny.13 mph37%29.89 "Hg10 mi
7:50 pm84 °FPassing clouds.13 mph37%29.89 "HgN/A
7:20 pm88 °FSunny.7 mph33%29.86 "Hg10 mi
6:50 pm90 °FPassing clouds.8 mph31%29.86 "HgN/A
6:20 pm90 °FPassing clouds.9 mph31%29.86 "HgN/A
5:50 pm91 °FPassing clouds.9 mph32%29.86 "HgN/A
5:20 pm91 °FPassing clouds.10 mph30%29.86 "HgN/A
4:50 pm91 °FSunny.10 mph30%29.89 "Hg10 mi
4:20 pm90 °FPassing clouds.10 mph31%29.89 "HgN/A
3:50 pm90 °FPassing clouds.9 mph31%29.89 "HgN/A
3:20 pm90 °FPassing clouds.7 mph31%29.92 "HgN/A
2:50 pm90 °FPassing clouds.7 mph31%29.92 "HgN/A
2:20 pm90 °FSunny.5 mph33%29.92 "Hg10 mi
1:50 pm88 °FPassing clouds.5 mph38%29.92 "HgN/A
1:20 pm88 °FSunny.5 mph38%29.95 "Hg10 mi
12:50 pm88 °FSunny.2 mph40%29.95 "Hg10 mi
12:20 pm84 °FSunny.2 mph43%29.95 "Hg10 mi
11:50 am82 °FSunny.3 mph45%29.95 "Hg10 mi
11:20 am82 °FSunny.3 mph45%29.95 "Hg10 mi
10:50 am81 °FPassing clouds.5 mph51%29.98 "HgN/A
10:20 am79 °FSunny.3 mph54%29.98 "Hg10 mi
9:20 am75 °FPassing clouds.5 mph65%29.98 "HgN/A
Weather by CustomWeather, © 2017

See weather overviewHow to use our weather pages